Погода в Клаипеде

Погода в Клаипеде : погода сейчас, прогноз погоды и архив. Всё, что Вы хотите узнать о погоде в Клаипеде!

Поиск расширенной информации на нашем сайте:

Другие новости

Новости СМИ2

Главная страница сайта

Новости сайта

03.07.2017

Напоминаем, что на нашем специализированном сайте Метеоцентр.Азия вы можете получить высокодетализированные автоматические прогнозы погоды по пунктам России, СНГ и мира в авиационном формате (включающие направление и скорость ветра, видимость, явления погоды, количество и форму облачности, нижнюю и верхнюю границу облачности).

Рекомендуем: Удобная и быстрая видео афиша для быстрого просмотра новостей

Погода в Клаипеде - сегодня

Время (UTC), дата Ветер
(°,м/с) 
Видим.   Явления Облачность Т
(°С)
Тd
(°С)
f(%) Тe
(°С)
Pmin
(гПа)
dP
(гПа)
Po
(мм)
O2
(г/м3)
Тmin Tmax R s Состояние
почвы
03 12.10.18 130 (ЮВ) 3-7{07}  20000 м    ясно 
+12 +8.8 81 +12  1028.3  0.2  771  296           
06 12.10.18 120 (ЮВ) 3-5{09}  20000 м    ясно 
+11.5 +8.2 80 +11  1028.4  0.1  771  297  +11.3        влажная 
09 12.10.18 150 (ЮВ) 2-5{09}  18000 м    3/0 верхняя 
[Ci sp]
+16.4 +9.3 63 +17  1029.1  0.7  771  292           
12 12.10.18 140 (ЮВ) 3-8{09}  20000 м    ясно 
+19.9 +10.3 54 +22  1028  -1.1  770  288           
18 12.10.18 140 (ЮВ) 3-6{08}  20000 м    ясно 
+15.6 +11.1 75 +18  1027.6  0.1  770  291    +20.3       
03 13.10.18 130 (ЮВ) 2-4{06}  16000 м    ясно 
+10.7 +8.9 89 +11  1028.1  -0.1  770  297           
06 13.10.18 140 (ЮВ) 2-5{05}  12000 м    ясно 
+10.1 +8.6 90 +10  1028.1  770  298  +9.9        влажная 
12 13.10.18 150 (ЮВ) 3-5{06}  18000 м    ясно 
+18.6 +10.6 60 +20  1028.3  -0.6  771  289           
15 13.10.18 150 (ЮВ) 1-3{05}  20000 м    ясно 
+14.5 +12.8 90 +20  1027.7  -0.6  770  292           
18 13.10.18 130 (ЮВ) 2-3{04}  6000 м  дымка  ясно 
+13.2 +12.3 94 +18  1027.7  770  294    +19.9       
00 14.10.18 120 (ЮВ) 2-4{05}  10 км    ясно 
+11.6 +9.8 89 +12  1027.4  -0.3  770  296           
03 14.10.18 130 (ЮВ) 3-5{05}  11000 м    ясно 
+11 +9.4 90 +11  1026.8  -0.6  769  296           
06 14.10.18 120 (ЮВ) 3-5{06}  10 км    ясно 
+10.6 +9 90 +10  1026.4  -0.4  769  297  +10        влажная 
09 14.10.18 140 (ЮВ) 4-8{08}  17000 м    ясно 
+15.8 +10.5 71 +17  1026.2  -0.2  769  291           
12 14.10.18 150 (ЮВ) 3-7{08}  20000 м    ясно 
+19.8 +11.3 58 +23  1024.5  -1.7  768  286           
15 14.10.18 140 (ЮВ) 4-7{08}  20000 м    ясно 
+19 +8.9 52 +19  1023  -1.5  767  287           
18 14.10.18 140 (ЮВ) 4-9{10}  20000 м    ясно 
+15.2 +6.5 56 +15  1022.9  -0.1  767  292    +20.4       
03 15.10.18 140 (ЮВ) 3-6{07}  20000 м    ясно 
+11.2 +5.3 67 +11  1022.3  -0.2  766  296           
06 15.10.18 140 (ЮВ) 4-6{07}  20000 м    ясно 
+10.8 +4.3 64 +10  1022.3  766  296  +10.4        влажная 
18 15.10.18 150 (ЮВ) 3-7{09}  20000 м    ясно 
+15.5 +7.7 60 +16  1020.6  765  290    +19.4       
03 16.10.18 130 (ЮВ) 3-6{06}  20000 м    ясно 
+10 +6.5 79 +10  1020.3  -0.5  765  296           
06 16.10.18 130 (ЮВ) 3-5{06}  20000 м    ясно 
+9.4 +6.1 80 +9  1020.4  0.1  765  297  +9.2        влажная 
09 16.10.18 140 (ЮВ) 3-5{07}  20000 м    3/0 верхняя 
[Ci sp]
+13.4 +7.7 68 +13  1021.2  0.8  765  293           
12 16.10.18 140 (ЮВ) 3-6{07}  20000 м    4/0 верхняя 
[Ci sp]
+16.6 +7.7 56 +17  1021.6  0.4  766  290           
15 16.10.18 140 (ЮВ) 1-2{03}  20000 м    ясно 
+14.7 +8.4 66 +16  1021.2  -0.4  765  291           
Время (UTC), дата Ветер
(°,м/с) 
Видим.   Явления Облачность Т
(°С)
Тd
(°С)
f(%) Тe
(°С)
Pmin
(гПа)
dP
(гПа)
Po
(мм)
O2
(г/м3)
Тmin Tmax R s Состояние
почвы

Для получения пояснительной информации подведите курсор к названию столбца.

ПОГОДА в Клаипеде - архив

Всё, что Вы хотите узнать о погоде в Клаипеде - удобно и подробно!

Выберите нужную дату (начиная с 1 января 2015* года) и нажмите кнопку "Найти".
Будут отображены архивные сводки погоды по пункту Клаипеда, начиная с указанной даты.


Отображать данные в формате CSV (для использования в таблицах Excel)


Внимание! Наш архив погоды предназначен исключительно для личного некоммерческого использования в познавательных целях. Если Вам необходимы официальные справки о состоянии погоды (для производственных, юридических, коммерческих и т.п. целей), обращайтесь в органы Росгидромета.

*Примечание: данная дата относится к архиву по метеостанциям СССР (Россия, СНГ, Балтия).
Архив по метеостанциям Зарубежной Европы и Азии (кроме Китая) хранится 10 дней, по другим регионам земного шара (Китай, Африка, Америка, Австралия, Океания) - 1 день.

Клаипеда - район местоположения метеостанции


Название, широта, долгота, высота метеостанции:
Клаипеда 55.7°ш. 21.1°д. 7 м над ур. моря [Литва]

Дополнительная информация

В oтличие oт бoльшинства пoгoдных сайтoв мы публикуем пoдрoбную метеoинфoрмацию в детальнoм прoфессиoнальнoм фoрмате.

Характеристики температуры и влажнoсти вoздуха измеряются на высoте 2 м в тени вдали oт зданий и деревьев.
Скoрoсть ветра измеряется на высoте 10 м (на урoвне рoста челoвека скoрoсть ветра ниже в 1.5-2 раза). Если метеoстанция нахoдится в гoрoде или в лесу, тo скoрoсть ветра занижена на 2-4 м/с пo сравнению с oткрытым местoм. Скoрoсть ветра над акватoриями крупных рек и oзёр, а также на вершинах хoлмoв на 2-5 м/с выше, чем в oбычных услoвиях.
Атмoсфернoе давление в разных тoчках местнoсти мoжет значительнo oтличаться oт давления на метеoстанции, в зависимoсти oт услoвий рельефа (при пoдъёме на 10 м давление пoнижается примернo на 1 мм рт.ст.).